Aeroporto :
LOGIN :

Iscrizione | Disclaimer

   EN    FR    IT 

 










Sommario :    VFR   VFR Marginale   IFR   IFR Intensivo   IFR Molto Intensivo
Visibilità : 
Base nubi : 
>= 8 km
>= 3000ft
5 / 8 km
1000 / 3000 ft
1500m / 5 km
500 / 1000 ft
800 / 1500m
200 / 500 ft
< 800m
< 200 ft
Simboli :   Temporali  Nebbia  Neve Forte  Precipitazioni Forti  Vento > 20 kt
SIGMETs :   Varie  Temporali  Ghiacco  Turbolenza  Onda orograficha  Ceneri Vulcaniche






- Altitudine del aeroporto : 143 ft
- Codice IATA : VDP


EKVD - Kolding Vamdrup

ULTIMO METAR :
  • 210120Z AUTO 32004KT //// ///////// M02/M06 Q1025

METARs OBSOLETI :
  • 210050Z AUTO 29003KT //// ///////// M02/M06 Q1025
  • 210020Z AUTO 26004KT //// ///////// M02/M06 Q1024
  • 202350Z AUTO 23003KT //// ///////// M02/M06 Q1025
  • 202320Z AUTO 32005KT //// ///////// M01/M06 Q1025
  • 202250Z AUTO 32005KT //// ///////// M01/M07 Q1024

Previsioni scadute.



MetMap, La meteo Aeronautica in un colpo d'occhio ! - Copyright ORBIFLY Dicembre 2007 - Disclaimer

ORBIFLY MET'MAP TEAM :

Programmazione e sviluppo : Alexandra Zaïnal
Concezione : Baudouin d'Aumeries
Aiuto per la programmazione : Marc-Olivier Méhu
Supporto tecnico e logistico : Manuel Goepfert
Aiuto per la traduzione : Arnaldo La Scala

Contatto : metmap@orbifly.com




FONTI E CREDITI :

   NOAA